Location: Bacea
(45.9500°N, 22.6667°E)
Time: 23:06:33
(UTC+00:00)

Cosmos 1953 - Pass Details

Date: 31 May 2022
Orbit: 533 x 555 km, 82.5° (Epoch: 01 July)

Event Time Altitude Azimuth Distance (km) Brightness Sun altitude
Rises 21:33:05 0° 2° (N) 2,720 7.2 -20.9°
Reaches altitude 10° 21:35:33 10° 15° (NNE) 1,818 5.8 -21.0°
Maximum altitude 21:38:54 25° 72° (ENE) 1,108 3.9 -21.2°
Enters shadow 21:39:33 24° 89° (E) 1,141 3.8 -21.2°
